Temperature
16 16 15 15 15 16 16 16 16 16 16 16 16 16 16 16 16 16 16 16 16 16 16 16 16 16 16 16 16 16 15 15 16 15 15 13 13 12 12 12 12 12 13
16 16 15 15 15 15 16 16 16 16 16 16 16 16 16 16 16 16 16 16 16 16 16 16 16 16 15 15 15 15 15 15 15 16 15 14 13 12 12 11 11 12 12
16 16 15 15 15 15 15 16 16 16 16 15 15 15 15 15 15 15 15 15 15 15 15 15 15 15 15 14 14 15 15 15 15 15 15 15 13 12 11 11 11 11 12
16 16 16 15 15 15 15 16 16 16 15 15 15 15 15 15 15 15 15 15 15 15 15 15 15 15 15 14 14 14 14 15 15 15 15 15 13 12 11 11 11 11 11
17 16 16 16 16 15 15 15 15 15 15 15 15 15 15 15 15 15 15 15 15 15 15 15 15 15 15 15 15 15 15 15 15 14 14 15 14 13 13 12 11 11 11
17 16 16 16 16 15 15 15 15 15 15 15 15 14 14 14 14 14 14 14 15 15 15 15 15 15 15 15 15 15 15 16 15 15 14 15 16 15 15 13 12 11 11
17 16 16 16 16 15 15 15 15 15 15 15 14 14 14 14 14 14 14 14 14 15 15 15 15 15 15 15 16 16 16 16 16 16 15 16 16 16 15 14 13 12 11
17 16 16 15 15 15 15 15 15 15 15 14 14 14 14 14 14 13 14 14 14 15 15 15 15 15 15 15 15 16 16 15 15 15 15 15 15 14 14 14 13 12 10
17 16 16 16 15 15 15 15 15 14 14 14 14 13 13 13 13 13 13 14 14 14 15 15 14 14 14 14 14 15 15 15 15 15 14 14 15 14 14 13 12 11 10
16 16 16 15 15 15 15 14 14 14 14 13 13 13 12 12 12 13 13 13 14 14 14 14 14 14 14 14 14 14 14 15 15 15 14 14 14 14 14 13 13 12 11
15 15 15 15 14 14 14 14 13 13 13 13 13 12 12 12 12 12 13 13 13 13 13 13 13 13 13 13 13 14 14 14 14 14 14 14 14 14 14 14 13 13 12
13 13 13 13 13 13 13 13 13 13 12 12 12 12 12 12 12 12 12 13 13 13 13 13 13 13 13 13 13 13 13 13 13 13 14 14 14 14 15 14 14 13 12
12 12 12 12 12 12 12 12 12 12 12 12 12 12 12 12 12 12 12 12 13 13 13 13 13 13 13 12 12 12 12 12 12 13 13 14 14 14 14 14 13 12 11
11 11 11 11 11 11 12 12 12 12 12 12 12 12 12 12 12 12 12 12 12 12 12 12 13 13 12 12 12 12 12 11 12 12 12 13 13 13 13 13 13 12 11
11 11 10 10 10 11 11 11 11 11 12 12 12 12 12 12 12 12 12 12 12 12 12 12 12 12 12 12 12 11 11 11 11 11 11 12 12 12 12 12 12 12 11
11 11 10 10 10 10 11 11 11 11 11 11 11 11 12 12 12 12 12 12 12 11 11 12 12 12 12 12 11 11 11 11 11 11 11 11 11 12 12 11 11 11 11
11 11 11 10 10 10 11 11 11 11 11 11 11 11 11 11 12 12 12 11 11 11 11 11 11 11 11 11 11 11 10 11 11 11 11 11 11 11 11 11 11 11 11
11 11 11 11 11 10 10 10 10 10 11 11 11 11 11 11 11 11 11 11 11 11 11 10 10 10 10 11 11 10 10 10 10 10 11 11 11 11 11 11 11 11 11
11 11 11 11 11 11 11 10 10 10 10 10 11 11 11 11 11 10 10 10 10 10 10 10 10 10 10 10 10 10 10 10 10 10 10 10 11 11 11 10 10 10 10
11 11 11 11 11 11 11 11 11 11 10 10 10 10 10 10 10 10 10 10 10 9 9 9 9 9 9 10 10 10 10 10 10 10 10 10 10 10 10 10 10 10 10
11 11 11 11 11 11 11 11 11 11 10 10 10 10 10 10 10 10 10 9 9 9 9 9 9 9 9 9 9 9 9 9 10 10 10 10 10 10 10 10 10 10 10
10 10 10 11 11 11 11 10 10 10 10 10 10 10 10 9 9 10 9 9 9 9 9 9 9 9 9 9 9 9 9 9 9 9 9 9 9 9 9 9 9 9 9
10 10 10 10 10 10 10 10 10 10 10 10 10 10 10 10 10 9 9 9 9 9 9 9 9 9 9 9 9 9 9 9 9 9 9 9 9 9 9 9 9 9 9
10 10 10 10 10 10 10 10 10 10 10 10 10 10 10 10 10 10 9 9 9 9 9 9 9 9 9 9 9 9 9 9 9 9 9 9 9 9 9 8 9 9 9
10 10 10 10 10 10 10 10 10 10 10 10 10 10 10 10 10 10 10 10 9 9 9 9 9 9 9 9 9 9 9 9 9 9 9 9 8 8 8 9 9 8 8
10 10 10 10 10 10 10 10 10 10 10 10 10 10 10 10 10 10 10 10 9 9 9 9 9 9 9 9 9 9 9 9 9 9 8 8 8 8 8 8 8 8 8
Wind_Speed
8 7 8 8 8 7 6 7 5 4 2 3 6 6 6 7 7 7 8 7 8 7 6 8 8 7 7 6 7 8 5 5 5 3 2 5 4 6 8 7 7 7 8
8 8 8 8 8 8 8 7 7 6 4 4 5 6 6 6 7 7 8 8 8 9 9 8 8 8 8 7 8 8 7 6 5 6 4 5 4 8 7 6 5 5 7
8 9 9 8 9 8 8 7 6 6 5 5 5 6 7 7 6 7 8 8 9 9 10 10 9 9 9 7 8 9 7 7 5 6 6 4 3 6 5 4 4 2 6
9 10 10 10 9 9 8 7 6 5 5 5 5 5 5 5 5 5 6 7 8 8 8 9 9 11 11 10 9 10 9 8 7 8 7 7 4 6 6 4 3 1 2
10 10 11 9 8 8 7 7 6 6 6 5 4 3 2 3 4 5 5 6 7 7 7 8 9 13 15 13 10 10 11 10 9 8 9 7 6 8 8 5 4 2 1
11 11 10 9 9 8 8 7 6 6 5 5 4 3 1 2 4 6 6 6 6 7 7 7 8 11 15 18 17 17 17 16 14 10 9 11 10 7 7 6 5 4 3
11 11 10 10 9 9 8 7 6 5 4 3 3 2 2 4 6 6 7 6 7 7 8 8 7 6 8 8 13 17 19 22 21 15 12 11 11 12 13 10 7 5 5
11 11 11 10 10 9 8 8 7 4 4 3 2 2 3 5 6 5 4 4 5 7 9 10 8 7 7 8 8 9 11 14 16 14 13 12 10 11 14 11 8 6 4
10 10 11 11 10 10 9 8 6 5 4 3 3 4 4 5 7 6 5 4 4 4 5 8 9 9 11 11 9 9 10 11 16 17 17 16 17 18 18 10 9 6 3
6 7 8 8 9 10 10 7 5 5 5 4 4 4 5 5 7 7 7 4 4 4 3 5 9 10 12 14 10 10 11 11 12 13 11 12 12 17 24 16 13 10 4
3 4 5 6 6 7 6 5 5 5 5 4 4 4 4 5 6 8 9 5 5 5 4 4 4 9 11 12 10 9 10 9 9 10 10 8 8 9 12 13 11 11 8
5 5 4 3 3 4 5 5 5 6 5 4 3 3 3 3 4 7 10 8 7 5 5 4 4 7 9 10 8 8 10 9 6 6 7 8 8 10 10 10 13 14 12
5 3 2 1 2 3 5 5 4 5 4 4 4 4 3 2 4 7 9 10 9 5 4 6 6 6 6 6 7 9 8 6 6 6 8 9 8 8 7 7 7 9 9
4 3 2 1 2 2 3 4 5 5 4 4 4 4 4 3 3 4 4 5 6 4 3 5 6 6 4 3 4 5 4 5 6 6 6 4 5 6 6 6 5 6 5
3 2 1 1 1 1 2 2 3 3 4 5 5 5 5 5 7 10 8 6 6 6 6 4 2 2 3 3 3 3 4 5 5 5 5 5 5 6 5 4 5 5 6
2 1 1 1 2 3 4 4 7 5 4 3 3 3 3 4 6 10 12 11 11 13 7 3 4 4 5 5 4 4 4 4 4 5 5 6 6 6 5 4 4 5 6
3 2 2 2 2 3 3 4 3 3 6 6 5 4 4 3 4 5 7 9 12 12 4 4 5 5 5 5 4 4 4 3 3 4 5 5 5 5 5 5 5 4 5
3 2 2 2 3 3 3 4 4 4 2 0 3 4 5 6 6 5 8 7 5 5 3 4 5 5 5 5 5 5 4 3 3 4 4 5 5 5 5 6 6 6 5
3 2 2 2 2 3 3 3 3 4 4 3 2 2 4 6 6 5 5 2 3 4 4 4 4 5 5 5 5 5 5 5 5 5 5 6 6 6 6 6 6 7 6
3 4 3 2 2 1 1 2 3 4 4 4 4 4 3 3 2 2 2 1 2 3 4 4 5 5 5 5 5 5 5 5 6 5 6 6 6 6 6 7 6 5 6
3 2 3 2 2 2 2 3 3 4 4 4 3 4 6 3 3 4 3 3 3 4 4 4 4 5 5 5 5 6 7 6 5 5 5 5 5 5 4 5 5 5 5
3 3 2 2 2 3 3 2 3 3 4 4 2 3 6 2 2 3 3 4 4 4 4 4 4 4 4 5 5 6 6 6 6 6 6 6 5 5 5 5 4 4 5
3 3 2 2 3 4 3 3 3 3 3 3 4 3 2 2 2 2 3 3 3 3 3 3 3 4 4 3 4 6 7 7 7 7 7 7 6 6 5 5 6 6 6
3 3 4 3 3 3 3 3 3 3 3 3 3 3 2 2 3 3 3 3 3 3 3 3 4 5 6 5 5 7 8 8 9 7 9 8 7 6 6 6 7 8 8
4 4 4 4 3 3 3 3 3 3 3 3 2 2 2 2 2 3 2 2 3 3 4 4 3 4 6 7 7 7 10 12 12 10 8 6 7 7 6 7 7 8 8
5 4 4 3 3 3 3 3 3 3 2 2 2 2 1 1 1 1 1 1 2 2 3 3 3 5 5 6 8 10 11 13 15 14 9 5 6 6 7 7 10 10 9
Wind_Direction
174 167 160 162 160 154 151 155 159 159 191 257 261 248 239 227 214 206 210 203 196 196 188 188 192 176 175 175 168 163 150 137 139 156 125 136 137 143 133 116 99 80 79
175 168 170 167 166 166 166 168 168 175 190 222 246 248 243 231 210 201 205 199 193 194 195 189 195 182 174 172 172 174 168 151 143 155 141 150 138 154 141 137 125 95 89
168 169 172 173 174 178 178 177 183 191 195 211 228 234 235 230 212 205 206 201 200 200 194 192 194 182 182 179 177 178 175 165 140 151 155 147 128 155 142 132 115 99 109
167 171 177 182 183 184 185 188 196 199 200 212 219 228 237 233 216 205 203 209 209 208 201 197 191 190 192 184 184 181 172 158 145 151 155 151 140 152 151 144 143 185 111
173 181 189 189 188 189 195 203 208 210 206 194 179 174 193 215 215 202 199 203 206 209 205 199 199 202 201 192 188 179 168 160 156 156 165 162 164 171 179 166 156 153 59
186 193 193 189 191 197 202 204 206 205 192 173 163 159 195 242 246 223 201 201 200 195 190 187 197 205 209 206 198 183 173 167 168 168 177 186 189 176 159 166 146 148 199
199 200 195 193 196 199 195 188 190 185 171 166 165 172 233 254 254 238 215 198 199 192 178 170 177 190 182 187 197 187 183 179 173 170 180 193 189 182 172 173 171 163 183
202 200 195 193 195 191 184 183 182 172 175 187 215 230 244 254 241 220 209 192 185 182 174 172 172 179 185 172 164 173 181 183 182 180 188 191 187 180 184 178 158 131 91
202 200 194 191 188 184 187 188 182 176 188 204 222 228 233 249 232 205 161 145 149 160 168 170 169 176 190 176 161 169 180 191 193 192 190 188 184 179 172 155 157 156 163
208 202 190 185 184 186 190 188 179 179 195 206 220 215 217 232 235 208 165 146 148 154 160 172 182 182 181 174 173 175 186 193 191 201 200 188 180 180 180 182 179 176 157
113 135 153 168 181 189 189 182 178 180 187 201 209 210 218 231 239 210 173 159 165 163 168 179 198 194 184 178 173 182 194 184 191 197 197 184 172 178 188 188 184 180 174
84 91 109 137 172 185 179 181 178 175 181 194 203 224 242 243 225 206 184 176 170 169 182 187 195 195 188 181 176 182 177 163 164 179 187 187 185 188 191 187 185 186 185
91 86 87 123 165 171 177 180 173 170 174 192 198 219 239 236 228 213 190 180 174 168 178 180 181 185 178 179 189 185 174 167 167 177 190 196 191 178 158 154 160 174 178
123 134 136 145 181 194 186 173 168 173 183 196 203 215 222 217 212 197 178 170 166 150 133 128 119 125 137 166 185 194 195 193 187 187 181 160 136 139 152 155 156 162 173
116 132 141 141 128 121 122 129 173 185 189 194 208 203 199 214 219 196 178 178 174 160 133 112 119 149 176 194 199 204 206 198 188 163 152 145 150 154 155 150 146 156 180
92 101 142 143 123 119 115 85 53 64 80 132 158 168 200 227 224 201 194 185 169 156 140 161 184 195 205 208 209 210 210 204 182 158 153 155 159 165 161 150 151 165 186
132 145 161 155 146 144 146 143 130 62 46 46 52 69 81 82 117 159 175 172 166 159 154 182 198 207 211 208 209 210 213 208 179 156 156 163 162 166 168 173 171 168 184
135 139 151 160 163 165 170 174 170 168 171 78 37 56 76 81 88 106 126 126 153 176 189 195 208 211 210 208 207 207 203 186 181 175 172 173 173 176 182 186 186 183 180
146 155 162 172 171 170 174 175 176 174 166 155 145 104 95 88 81 98 126 126 182 204 214 215 208 206 208 206 204 199 193 188 181 175 179 179 176 177 189 193 188 189 179
169 182 164 161 159 141 143 151 157 160 160 164 173 170 149 130 136 160 200 237 230 224 218 219 213 207 202 199 196 191 189 189 185 181 180 179 177 180 186 186 183 186 195
167 183 168 150 159 150 130 128 135 144 158 171 182 182 169 174 195 209 220 234 241 241 233 226 219 212 208 199 193 195 197 198 192 186 179 176 174 179 182 180 191 198 201
154 166 171 177 167 157 148 139 135 141 155 156 144 153 179 191 210 227 238 245 245 242 237 229 227 221 212 206 202 201 205 207 200 191 183 176 171 172 170 175 184 196 208
146 147 136 126 134 144 139 132 134 141 149 154 156 157 177 209 229 244 255 258 255 249 237 226 230 234 227 213 206 204 209 212 205 194 189 186 186 187 187 194 199 207 218
129 134 132 129 127 136 143 144 143 150 155 158 166 181 201 224 243 258 263 263 259 258 246 232 234 240 237 224 221 219 220 215 198 191 186 185 186 188 190 203 213 219 223
121 124 127 133 135 137 139 145 152 157 162 172 182 196 215 228 247 267 268 263 261 264 265 253 241 241 243 235 228 223 220 211 198 188 180 181 189 194 203 214 220 225 224
128 128 125 125 128 130 131 135 141 145 148 160 170 187 202 221 254 273 277 272 278 287 292 284 268 265 262 255 245 235 225 216 210 205 196 193 204 215 218 225 226 226 224
Height
1481 1483 1485 1487 1490 1492 1494 1496 1498 1500 1501 1504 1506 1509 1512 1514 1515 1517 1518 1520 1521 1523 1525 1527 1529 1531 1532 1534 1537 1539 1541 1544 1546 1547 1549 1550 1552 1553 1554 1555 1555 1555 1554
1478 1480 1482 1485 1487 1490 1492 1493 1495 1496 1499 1501 1503 1505 1507 1509 1511 1512 1513 1515 1517 1518 1520 1522 1524 1525 1527 1529 1531 1534 1537 1540 1543 1545 1546 1547 1549 1551 1553 1554 1554 1554 1553
1476 1477 1479 1482 1484 1487 1489 1491 1492 1494 1496 1498 1501 1503 1504 1506 1507 1508 1509 1511 1512 1514 1515 1517 1518 1520 1521 1523 1526 1529 1532 1535 1539 1542 1544 1545 1547 1548 1550 1551 1552 1553 1552
1473 1475 1477 1479 1481 1484 1486 1489 1491 1493 1494 1496 1498 1500 1501 1502 1503 1504 1505 1506 1508 1509 1511 1512 1514 1515 1516 1518 1520 1523 1527 1530 1534 1538 1541 1542 1544 1545 1547 1548 1550 1551 1551
1470 1472 1474 1477 1480 1482 1484 1486 1488 1490 1492 1493 1495 1496 1497 1497 1498 1499 1500 1501 1503 1505 1506 1508 1510 1511 1513 1514 1516 1519 1522 1525 1529 1533 1537 1538 1540 1541 1542 1545 1547 1548 1548
1466 1469 1471 1474 1477 1479 1481 1484 1486 1487 1489 1490 1491 1492 1493 1493 1494 1494 1495 1496 1498 1500 1502 1504 1506 1508 1510 1511 1513 1515 1518 1520 1524 1528 1532 1534 1536 1537 1539 1541 1543 1544 1545
1463 1465 1468 1470 1473 1475 1478 1480 1482 1484 1486 1487 1487 1488 1488 1488 1489 1489 1490 1491 1492 1495 1497 1499 1501 1504 1506 1508 1511 1512 1515 1518 1521 1524 1527 1530 1533 1534 1536 1538 1540 1542 1544
1458 1460 1463 1465 1468 1471 1473 1476 1478 1480 1482 1483 1484 1484 1484 1484 1484 1484 1485 1486 1488 1490 1492 1494 1497 1500 1502 1505 1507 1509 1511 1514 1516 1520 1524 1527 1530 1532 1533 1536 1538 1541 1542
1454 1456 1458 1461 1463 1466 1469 1471 1474 1477 1478 1479 1479 1480 1480 1480 1481 1481 1482 1483 1484 1487 1489 1491 1494 1496 1498 1501 1503 1505 1507 1510 1513 1516 1520 1523 1525 1528 1529 1531 1534 1536 1537
1451 1453 1455 1457 1459 1462 1464 1468 1471 1473 1474 1475 1475 1476 1477 1477 1478 1478 1479 1480 1482 1484 1486 1488 1490 1493 1495 1497 1499 1501 1503 1506 1509 1512 1515 1518 1520 1523 1525 1526 1529 1531 1534
1448 1450 1451 1453 1456 1458 1461 1464 1467 1469 1470 1471 1472 1472 1474 1474 1475 1476 1477 1478 1480 1482 1483 1485 1488 1490 1492 1494 1496 1498 1500 1503 1505 1508 1511 1513 1516 1518 1521 1522 1524 1528 1531
1447 1448 1449 1451 1453 1456 1458 1460 1462 1464 1465 1467 1468 1469 1471 1472 1473 1474 1475 1477 1478 1480 1482 1483 1485 1486 1488 1490 1492 1494 1496 1498 1500 1503 1505 1508 1510 1513 1517 1519 1521 1525 1529
1447 1448 1448 1449 1450 1452 1454 1456 1458 1460 1462 1463 1465 1466 1467 1469 1471 1472 1474 1475 1477 1479 1480 1481 1482 1483 1485 1486 1487 1489 1491 1493 1495 1497 1499 1502 1506 1509 1513 1516 1519 1522 1526
1446 1446 1447 1447 1448 1449 1451 1453 1455 1457 1459 1460 1461 1462 1464 1466 1468 1470 1471 1473 1475 1476 1478 1479 1480 1480 1481 1482 1483 1484 1486 1487 1489 1491 1494 1498 1501 1504 1508 1512 1515 1518 1521
1445 1445 1445 1446 1446 1447 1449 1451 1453 1455 1456 1457 1458 1460 1461 1463 1465 1467 1468 1470 1472 1473 1474 1475 1476 1478 1478 1479 1480 1481 1482 1483 1484 1486 1489 1492 1496 1500 1504 1508 1512 1515 1517
1444 1444 1444 1445 1445 1447 1448 1450 1451 1453 1454 1455 1456 1457 1458 1460 1461 1463 1464 1466 1468 1469 1470 1471 1472 1474 1475 1476 1476 1477 1478 1479 1480 1482 1485 1488 1492 1496 1500 1504 1508 1511 1513
1444 1444 1444 1444 1445 1446 1447 1448 1450 1451 1452 1453 1454 1455 1456 1457 1458 1460 1461 1463 1464 1465 1466 1467 1469 1470 1471 1472 1473 1474 1475 1477 1478 1479 1482 1486 1490 1493 1497 1501 1504 1507 1510
1444 1443 1443 1444 1444 1445 1446 1447 1448 1449 1450 1451 1452 1453 1454 1455 1457 1458 1459 1460 1461 1461 1463 1464 1465 1467 1468 1469 1470 1471 1472 1474 1476 1478 1481 1484 1487 1490 1493 1497 1501 1504 1506
1443 1443 1443 1443 1444 1444 1445 1446 1447 1447 1448 1449 1450 1452 1453 1454 1455 1456 1456 1457 1458 1459 1460 1461 1463 1464 1465 1466 1467 1468 1469 1471 1473 1475 1478 1481 1484 1487 1490 1493 1497 1500 1502
1443 1443 1443 1444 1444 1445 1445 1446 1447 1447 1448 1449 1450 1450 1451 1452 1453 1453 1454 1454 1455 1456 1457 1458 1459 1461 1462 1463 1464 1465 1467 1468 1470 1472 1475 1477 1480 1483 1486 1489 1492 1494 1496
1442 1443 1444 1444 1445 1445 1446 1447 1447 1448 1448 1449 1450 1450 1451 1451 1452 1452 1452 1453 1453 1454 1454 1455 1456 1457 1458 1460 1461 1462 1464 1465 1467 1469 1471 1474 1476 1479 1481 1484 1486 1488 1490
1442 1443 1444 1444 1445 1446 1447 1447 1448 1448 1449 1449 1450 1450 1451 1451 1451 1452 1452 1452 1452 1452 1452 1453 1454 1454 1455 1456 1457 1458 1460 1461 1463 1465 1467 1469 1472 1474 1476 1478 1480 1482 1484
1442 1443 1444 1444 1445 1446 1447 1448 1448 1449 1449 1450 1450 1451 1451 1451 1452 1452 1452 1452 1451 1451 1451 1451 1451 1451 1452 1452 1453 1454 1456 1457 1459 1460 1462 1464 1466 1468 1470 1472 1474 1476 1477
1442 1443 1444 1444 1445 1446 1447 1448 1449 1449 1450 1450 1451 1451 1452 1452 1452 1452 1452 1451 1451 1450 1449 1449 1449 1449 1449 1449 1449 1450 1451 1452 1454 1455 1456 1458 1460 1462 1464 1466 1468 1470 1471
1442 1443 1443 1444 1445 1446 1447 1448 1449 1450 1450 1451 1451 1452 1452 1452 1452 1452 1452 1451 1450 1449 1449 1448 1447 1447 1447 1446 1446 1446 1447 1447 1448 1450 1451 1453 1454 1457 1459 1461 1463 1464 1465
1441 1442 1443 1444 1445 1446 1447 1448 1449 1450 1450 1451 1452 1452 1452 1452 1452 1452 1451 1451 1450 1449 1448 1447 1447 1446 1445 1445 1444 1444 1444 1444 1445 1446 1447 1448 1450 1452 1454 1455 1457 1458 1459